| time (UTC) | temp C | wind direction | speed KPH | gust KPH | rain 1hr cm | rain 24hr cm | rain mn cm | humidity % | barometer mb |
| 20260504130609 | 7 | 327 | 6.4 | 35.4 | 0.00 | 0.00 | 0.00 | 65 | 999.2 |
| 20260504130106 | 7 | 337 | 12.9 | 29.0 | 0.00 | 0.00 | 0.00 | 65 | 999.3 |
| 20260504110450 | 8 | 274 | 12.9 | 12.9 | 0.00 | 0.00 | 0.00 | 70 | 997.0 |
| 20260504100407 | 9 | 277 | 8.0 | 8.0 | 0.00 | 0.00 | 0.00 | 67 | 996.4 |
| 20260504081800 | 11 | 295 | 16.1 | 22.5 | 0.00 | 0.00 | 0.00 | 60 | 996.3 |
| 20260504081256 | 11 | 28 | 16.1 | 19.3 | 0.00 | 0.00 | 0.00 | 59 | 996.0 |
| 20260504080753 | 11 | 334 | 19.3 | 29.0 | 0.00 | 0.00 | 0.00 | 58 | 995.6 |
| 20260504080250 | 12 | 354 | 27.4 | 41.8 | 0.00 | 0.00 | 0.00 | 58 | 995.4 |
| 20260504070217 | 15 | 233 | 17.7 | 32.2 | 0.00 | 0.00 | 0.00 | 44 | 993.7 |
| 20260504060138 | 14 | 202 | 8.0 | 29.0 | 0.00 | 0.00 | 0.00 | 45 | 994.6 |
| 20260504050606 | 15 | 195 | 12.9 | 24.1 | 0.00 | 0.00 | 0.00 | 43 | 995.9 |
| 20260504050103 | 14 | 206 | 9.7 | 16.1 | 0.00 | 0.00 | 0.00 | 44 | 996.2 |
| 20260504045600 | 14 | 190 | 6.4 | 14.5 | 0.00 | 0.00 | 0.00 | 44 | 996.0 |
| 20260504045054 | 15 | 227 | 11.3 | 17.7 | 0.00 | 0.00 | 0.00 | 44 | 996.4 |
| 20260504044553 | 15 | 238 | 11.3 | 17.7 | 0.00 | 0.00 | 0.00 | 44 | 996.6 |
| 20260504044049 | 15 | 203 | 3.2 | 16.1 | 0.00 | 0.00 | 0.00 | 43 | 996.7 |
| 20260504043547 | 15 | 200 | 6.4 | 14.5 | 0.00 | 0.00 | 0.00 | 43 | 996.9 |
| 20260504043044 | 15 | 186 | 14.5 | 17.7 | 0.00 | 0.00 | 0.00 | 42 | 996.9 |
| 20260504042541 | 15 | 157 | 14.5 | 22.5 | 0.00 | 0.00 | 0.00 | 42 | 996.9 |
| 20260504042038 | 15 | 173 | 17.7 | 20.9 | 0.00 | 0.00 | 0.00 | 42 | 997.1 |
| 20260504041533 | 15 | 206 | 3.2 | 9.7 | 0.00 | 0.00 | 0.00 | 42 | 997.2 |
| 20260504041030 | 15 | 219 | 11.3 | 17.7 | 0.00 | 0.00 | 0.00 | 42 | 997.4 |
| 20260504040527 | 15 | 185 | 11.3 | 14.5 | 0.00 | 0.00 | 0.00 | 42 | 997.5 |
| 20260504040024 | 15 | 159 | 4.8 | 14.5 | 0.00 | 0.00 | 0.00 | 41 | 997.4 |
| 20260504035521 | 15 | 161 | 4.8 | 12.9 | 0.00 | 0.00 | 0.00 | 41 | 997.6 |
| 20260504035017 | 15 | 241 | 9.7 | 17.7 | 0.00 | 0.00 | 0.00 | 41 | 997.6 |
| 20260504034515 | 15 | 203 | 3.2 | 16.1 | 0.00 | 0.00 | 0.00 | 41 | 997.8 |
| 20260504034012 | 15 | 196 | 12.9 | 16.1 | 0.00 | 0.00 | 0.00 | 41 | 997.8 |
| 20260504033509 | 15 | 207 | 9.7 | 17.7 | 0.00 | 0.00 | 0.00 | 42 | 998.1 |
| 20260504033007 | 15 | 191 | 12.9 | 14.5 | 0.00 | 0.00 | 0.00 | 42 | 998.1 |
| 20260504032503 | 15 | 188 | 4.8 | 16.1 | 0.00 | 0.00 | 0.00 | 41 | 998.3 |
| 20260504032000 | 15 | 189 | 16.1 | 16.1 | 0.00 | 0.00 | 0.00 | 41 | 998.5 |
| 20260504031457 | 15 | 169 | 3.2 | 12.9 | 0.00 | 0.00 | 0.00 | 41 | 998.6 |
| 20260504030953 | 15 | 200 | 6.4 | 12.9 | 0.00 | 0.00 | 0.00 | 42 | 998.6 |
| 20260504030451 | 15 | 180 | 8.0 | 9.7 | 0.00 | 0.00 | 0.00 | 41 | 999.1 |
| 20260504025946 | 16 | 164 | 3.2 | 9.7 | 0.00 | 0.00 | 0.00 | 40 | 998.7 |
| 20260504025444 | 16 | 231 | 4.8 | 17.7 | 0.00 | 0.00 | 0.00 | 41 | 998.8 |
| 20260504024941 | 16 | 195 | 6.4 | 12.9 | 0.00 | 0.00 | 0.00 | 41 | 998.9 |
| 20260504024438 | 16 | 188 | 14.5 | 14.5 | 0.00 | 0.00 | 0.00 | 40 | 999.1 |
| 20260504023935 | 16 | 162 | 6.4 | 9.7 | 0.00 | 0.00 | 0.00 | 41 | 999.2 |
| 20260504023431 | 16 | 175 | 3.2 | 11.3 | 0.00 | 0.00 | 0.00 | 40 | 999.2 |
| 20260504022927 | 16 | 201 | 4.8 | 12.9 | 0.00 | 0.00 | 0.00 | 40 | 999.3 |
| 20260504022423 | 16 | 206 | 6.4 | 16.1 | 0.00 | 0.00 | 0.00 | 40 | 999.4 |
| 20260504021920 | 16 | 177 | 9.7 | 16.1 | 0.00 | 0.00 | 0.00 | 39 | 999.5 |
| 20260504021417 | 16 | 183 | 3.2 | 14.5 | 0.00 | 0.00 | 0.00 | 40 | 999.5 |
| 20260504020915 | 16 | 176 | 3.2 | 12.9 | 0.00 | 0.00 | 0.00 | 38 | 999.7 |
| 20260504020411 | 16 | 152 | 6.4 | 8.0 | 0.00 | 0.00 | 0.00 | 39 | 999.7 |
| 20260504015908 | 16 | 201 | 4.8 | 14.5 | 0.00 | 0.00 | 0.00 | 38 | 1000.0 |
| 20260504015403 | 16 | 180 | 3.2 | 11.3 | 0.00 | 0.00 | 0.00 | 38 | 999.9 |
| 20260504014854 | 17 | 198 | 6.4 | 12.9 | 0.00 | 0.00 | 0.00 | 38 | 1000.1 |
| 20260504014350 | 17 | 189 | 6.4 | 9.7 | 0.00 | 0.00 | 0.00 | 36 | 1000.2 |
| 20260504013847 | 17 | 223 | 3.2 | 9.7 | 0.00 | 0.00 | 0.00 | 35 | 1000.1 |
| 20260504013345 | 17 | 216 | 6.4 | 9.7 | 0.00 | 0.00 | 0.00 | 34 | 1000.2 |
| 20260504012842 | 18 | 211 | 6.4 | 14.5 | 0.00 | 0.00 | 0.00 | 33 | 1000.4 |
| 20260504012339 | 18 | 217 | 9.7 | 19.3 | 0.00 | 0.00 | 0.00 | 32 | 1000.7 |
| 20260504011837 | 18 | 221 | 14.5 | 16.1 | 0.00 | 0.00 | 0.00 | 32 | 1000.7 |
| 20260504011333 | 18 | 240 | 14.5 | 22.5 | 0.00 | 0.00 | 0.00 | 31 | 1000.6 |
| 20260504010829 | 18 | 230 | 11.3 | 16.1 | 0.00 | 0.00 | 0.00 | 31 | 1000.8 |
| 20260504010325 | 19 | 238 | 9.7 | 20.9 | 0.00 | 0.00 | 0.00 | 31 | 1000.8 |
| 20260504005822 | 20 | 233 | 16.1 | 22.5 | 0.00 | 0.00 | 0.00 | 30 | 1000.9 |
| 20260504005319 | 20 | 223 | 22.5 | 29.0 | 0.00 | 0.00 | 0.00 | 29 | 1001.1 |
| 20260504004816 | 20 | 236 | 16.1 | 22.5 | 0.00 | 0.00 | 0.00 | 29 | 1001.2 |
| 20260504004314 | 20 | 253 | 17.7 | 25.7 | 0.00 | 0.00 | 0.00 | 29 | 1001.3 |
| 20260504003810 | 20 | 258 | 17.7 | 25.7 | 0.00 | 0.00 | 0.00 | 28 | 1001.4 |
| 20260504003307 | 21 | 247 | 27.4 | 30.6 | 0.00 | 0.00 | 0.00 | 28 | 1001.3 |
| 20260504002803 | 21 | 246 | 20.9 | 27.4 | 0.00 | 0.00 | 0.00 | 28 | 1001.4 |
| 20260504002300 | 21 | 250 | 17.7 | 24.1 | 0.00 | 0.00 | 0.00 | 29 | 1001.5 |
| 20260504001758 | 21 | 266 | 22.5 | 37.0 | 0.00 | 0.00 | 0.00 | 29 | 1001.5 |
| 20260504001255 | 21 | 252 | 16.1 | 24.1 | 0.00 | 0.00 | 0.00 | 28 | 1001.5 |
| 20260504000752 | 21 | 229 | 17.7 | 32.2 | 0.00 | 0.00 | 0.00 | 29 | 1001.8 |
| 20260504000249 | 21 | 243 | 12.9 | 24.1 | 0.00 | 0.00 | 0.00 | 30 | 1001.6 |
| 20260503235747 | 21 | 243 | 14.5 | 27.4 | 0.00 | 0.00 | 0.00 | 29 | 1002.0 |
| 20260503235244 | 21 | 304 | 12.9 | 40.2 | 0.00 | 0.00 | 0.00 | 28 | 1002.1 |
| 20260503234741 | 21 | 268 | 16.1 | 29.0 | 0.00 | 0.00 | 0.00 | 28 | 1002.0 |
| 20260503234239 | 21 | 271 | 11.3 | 17.7 | 0.00 | 0.00 | 0.00 | 29 | 1002.2 |
| 20260503233736 | 21 | 245 | 25.7 | 38.6 | 0.00 | 0.00 | 0.00 | 28 | 1002.0 |
| 20260503233231 | 21 | 262 | 24.1 | 38.6 | 0.00 | 0.00 | 0.00 | 28 | 1002.3 |
| 20260503232728 | 21 | 263 | 22.5 | 24.1 | 0.00 | 0.00 | 0.00 | 29 | 1002.3 |
| 20260503232225 | 21 | 243 | 12.9 | 27.4 | 0.00 | 0.00 | 0.00 | 30 | 1002.5 |
| 20260503231724 | 21 | 265 | 29.0 | 30.6 | 0.00 | 0.00 | 0.00 | 29 | 1002.4 |
| 20260503231220 | 21 | 256 | 19.3 | 24.1 | 0.00 | 0.00 | 0.00 | 29 | 1002.5 |
| 20260503230716 | 21 | 271 | 14.5 | 25.7 | 0.00 | 0.00 | 0.00 | 30 | 1002.8 |
| 20260503230214 | 21 | 244 | 14.5 | 25.7 | 0.00 | 0.00 | 0.00 | 30 | 1002.6 |
| 20260503225711 | 21 | 219 | 16.1 | 22.5 | 0.00 | 0.00 | 0.00 | 31 | 1003.0 |
| 20260503225206 | 21 | 264 | 14.5 | 24.1 | 0.00 | 0.00 | 0.00 | 30 | 1003.1 |
| 20260503224704 | 21 | 248 | 17.7 | 30.6 | 0.00 | 0.00 | 0.00 | 31 | 1003.2 |
| 20260503224201 | 21 | 264 | 12.9 | 24.1 | 0.00 | 0.00 | 0.00 | 31 | 1003.1 |
| 20260503223659 | 21 | 286 | 8.0 | 17.7 | 0.00 | 0.00 | 0.00 | 30 | 1003.1 |
| 20260503223155 | 21 | 288 | 16.1 | 29.0 | 0.00 | 0.00 | 0.00 | 30 | 1003.1 |
| 20260503222652 | 21 | 263 | 12.9 | 25.7 | 0.00 | 0.00 | 0.00 | 29 | 1003.3 |
| 20260503222150 | 21 | 266 | 9.7 | 27.4 | 0.00 | 0.00 | 0.00 | 30 | 1003.2 |
| 20260503221648 | 21 | 262 | 8.0 | 12.9 | 0.00 | 0.00 | 0.00 | 30 | 1003.3 |
| 20260503221144 | 21 | 265 | 12.9 | 17.7 | 0.00 | 0.00 | 0.00 | 30 | 1003.4 |
| 20260503220636 | 20 | 295 | 20.9 | 25.7 | 0.00 | 0.00 | 0.00 | 31 | 1003.6 |
| 20260503220132 | 20 | 298 | 16.1 | 19.3 | 0.00 | 0.00 | 0.00 | 31 | 1003.5 |
| 20260503215624 | 20 | 260 | 17.7 | 25.7 | 0.00 | 0.00 | 0.00 | 30 | 1003.7 |
| 20260503215120 | 21 | 275 | 19.3 | 24.1 | 0.00 | 0.00 | 0.00 | 29 | 1003.8 |
| 20260503214619 | 21 | 252 | 11.3 | 25.7 | 0.00 | 0.00 | 0.00 | 30 | 1003.8 |
| 20260503214114 | 20 | 259 | 24.1 | 29.0 | 0.00 | 0.00 | 0.00 | 30 | 1003.8 |
| 20260503213609 | 20 | 250 | 17.7 | 30.6 | 0.00 | 0.00 | 0.00 | 30 | 1003.9 |
| 20260503213104 | 20 | 256 | 16.1 | 25.7 | 0.00 | 0.00 | 0.00 | 29 | 1003.9 |
| 20260503212602 | 21 | 267 | 17.7 | 19.3 | 0.00 | 0.00 | 0.00 | 28 | 1003.9 |
| 20260503212059 | 20 | 253 | 16.1 | 17.7 | 0.00 | 0.00 | 0.00 | 29 | 1004.1 |
| 20260503211556 | 20 | 266 | 17.7 | 27.4 | 0.00 | 0.00 | 0.00 | 29 | 1004.2 |
| 20260503211052 | 21 | 269 | 12.9 | 12.9 | 0.00 | 0.00 | 0.00 | 27 | 1004.4 |
| 20260503210549 | 20 | 322 | 4.8 | 24.1 | 0.00 | 0.00 | 0.00 | 30 | 1004.5 |
| 20260503210044 | 20 | 260 | 27.4 | 29.0 | 0.00 | 0.00 | 0.00 | 28 | 1004.5 |
| 20260503205541 | 20 | 308 | 4.8 | 20.9 | 0.00 | 0.00 | 0.00 | 29 | 1004.9 |
| 20260503205038 | 20 | 316 | 8.0 | 29.0 | 0.00 | 0.00 | 0.00 | 29 | 1005.0 |
| 20260503204535 | 20 | 266 | 8.0 | 24.1 | 0.00 | 0.00 | 0.00 | 31 | 1005.3 |
| 20260503204032 | 20 | 264 | 12.9 | 20.9 | 0.00 | 0.00 | 0.00 | 28 | 1005.4 |
| 20260503203529 | 20 | 318 | 11.3 | 20.9 | 0.00 | 0.00 | 0.00 | 29 | 1005.3 |
| 20260503203026 | 20 | 335 | 8.0 | 14.5 | 0.00 | 0.00 | 0.00 | 30 | 1005.5 |
| 20260503202524 | 20 | 253 | 25.7 | 30.6 | 0.00 | 0.00 | 0.00 | 31 | 1005.4 |
| 20260503202022 | 20 | 251 | 6.4 | 17.7 | 0.00 | 0.00 | 0.00 | 31 | 1005.5 |
| 20260503201520 | 20 | 285 | 14.5 | 20.9 | 0.00 | 0.00 | 0.00 | 31 | 1005.5 |
| 20260503201017 | 20 | 280 | 6.4 | 20.9 | 0.00 | 0.00 | 0.00 | 31 | 1005.6 |
| 20260503200513 | 19 | 317 | 9.7 | 17.7 | 0.00 | 0.00 | 0.00 | 30 | 1005.8 |
| 20260503200010 | 19 | 283 | 12.9 | 14.5 | 0.00 | 0.00 | 0.00 | 30 | 1005.9 |
| 20260503195507 | 19 | 240 | 11.3 | 22.5 | 0.00 | 0.00 | 0.00 | 33 | 1005.9 |
| 20260503195003 | 19 | 273 | 9.7 | 25.7 | 0.00 | 0.00 | 0.00 | 32 | 1006.0 |
| 20260503194501 | 19 | 269 | 9.7 | 14.5 | 0.00 | 0.00 | 0.00 | 32 | 1006.3 |
| 20260503193955 | 19 | 311 | 11.3 | 19.3 | 0.00 | 0.00 | 0.00 | 31 | 1006.3 |
| 20260503193451 | 19 | 252 | 6.4 | 14.5 | 0.00 | 0.00 | 0.00 | 33 | 1006.4 |
| 20260503192947 | 19 | 307 | 11.3 | 12.9 | 0.00 | 0.00 | 0.00 | 31 | 1006.4 |
| 20260503192443 | 18 | 237 | 17.7 | 25.7 | 0.00 | 0.00 | 0.00 | 33 | 1006.5 |
| 20260503191939 | 18 | 306 | 4.8 | 11.3 | 0.00 | 0.00 | 0.00 | 33 | 1006.6 |
| 20260503191437 | 18 | 324 | 4.8 | 20.9 | 0.00 | 0.00 | 0.00 | 33 | 1006.7 |
| 20260503190933 | 18 | 351 | 4.8 | 17.7 | 0.00 | 0.00 | 0.00 | 33 | 1006.9 |
| 20260503190431 | 18 | 241 | 11.3 | 12.9 | 0.00 | 0.00 | 0.00 | 32 | 1006.7 |
| 20260503185927 | 18 | 288 | 9.7 | 25.7 | 0.00 | 0.00 | 0.00 | 32 | 1007.1 |
| 20260503185424 | 18 | 285 | 8.0 | 9.7 | 0.00 | 0.00 | 0.00 | 36 | 1007.4 |
| 20260503184923 | 17 | 297 | 8.0 | 22.5 | 0.00 | 0.00 | 0.00 | 34 | 1007.4 |
| 20260503184420 | 17 | 271 | 9.7 | 17.7 | 0.00 | 0.00 | 0.00 | 34 | 1007.4 |
| 20260503183916 | 18 | 289 | 11.3 | 22.5 | 0.00 | 0.00 | 0.00 | 35 | 1008.1 |
| 20260503183413 | 18 | 13 | 6.4 | 8.0 | 0.00 | 0.00 | 0.00 | 33 | 1008.1 |
| 20260503182910 | 18 | 326 | 1.6 | 14.5 | 0.00 | 0.00 | 0.00 | 36 | 1008.1 |
| 20260503182409 | 17 | 240 | 3.2 | 14.5 | 0.00 | 0.00 | 0.00 | 36 | 1008.1 |
| 20260503181906 | 17 | 288 | 9.7 | 16.1 | 0.00 | 0.00 | 0.00 | 34 | 1008.1 |
| 20260503181403 | 17 | 269 | 14.5 | 22.5 | 0.00 | 0.00 | 0.00 | 37 | 1008.1 |
| 20260503180859 | 17 | 267 | 14.5 | 17.7 | 0.00 | 0.00 | 0.00 | 36 | 1008.1 |
| 20260503180357 | 17 | 24 | 11.3 | 14.5 | 0.00 | 0.00 | 0.00 | 35 | 1008.0 |
| 20260503175853 | 17 | 298 | 9.7 | 17.7 | 0.00 | 0.00 | 0.00 | 37 | 1008.0 |
| 20260503175351 | 17 | 267 | 14.5 | 17.7 | 0.00 | 0.00 | 0.00 | 35 | 1008.3 |
| 20260503174847 | 17 | 244 | 4.8 | 11.3 | 0.00 | 0.00 | 0.00 | 35 | 1008.3 |
| 20260503174345 | 16 | 240 | 3.2 | 19.3 | 0.00 | 0.00 | 0.00 | 35 | 1008.6 |
| 20260503173845 | 16 | 20 | 17.7 | 19.3 | 0.00 | 0.00 | 0.00 | 35 | 1008.6 |
| 20260503173342 | 16 | 287 | 9.7 | 17.7 | 0.00 | 0.00 | 0.00 | 35 | 1008.8 |
| 20260503172838 | 16 | 296 | 12.9 | 24.1 | 0.00 | 0.00 | 0.00 | 36 | 1008.7 |
| 20260503172336 | 16 | 348 | 8.0 | 22.5 | 0.00 | 0.00 | 0.00 | 38 | 1009.0 |
| 20260503171832 | 16 | 245 | 9.7 | 22.5 | 0.00 | 0.00 | 0.00 | 37 | 1008.9 |
| 20260503171329 | 16 | 268 | 14.5 | 24.1 | 0.00 | 0.00 | 0.00 | 36 | 1008.9 |
| 20260503170826 | 16 | 352 | 6.4 | 27.4 | 0.00 | 0.00 | 0.00 | 38 | 1009.1 |
| 20260503170323 | 16 | 308 | 8.0 | 16.1 | 0.00 | 0.00 | 0.00 | 36 | 1008.9 |
| 20260503150715 | 15 | 0 | 8.0 | 12.9 | 0.00 | 0.00 | 0.00 | 36 | 1009.2 |
| 20260503150211 | 14 | 54 | 3.2 | 12.9 | 0.00 | 0.00 | 0.00 | 35 | 1009.1 |
| 20260503140136 | 12 | 32 | 8.0 | 12.9 | 0.00 | 0.00 | 0.00 | 51 | 1009.1 |